Back to catalog

ATLAS 5 CENTAUR R/B

AliveHEO
NORAD 37774·ROCKET BODY·🇺🇸 United States

Launched Aug 5, 2011 from Cape Canaveral Space Force Station

Loading…

Next Passes (next 24 hours)

TLE

StaleSource: Space-Track

Epoch: Aug 5, 2011, 22:14 UTC

1 37774U 11040B   11217.92695602 -.00010587 +00000-0 +00000-0 0  9997
2 37774 046.1373 048.0657 9000000 218.7772 083.3600 00.10000046000008

Track ATLAS 5 CENTAUR R/B in real time with AllMySat

Download on the App Store